sat.trackr.live / text

‹ back to catalog

STARLINK-36050

NORAD 66602 · 2025-270Q

PAYLOAD ACTIVE UNKNOWN

§ Identity

Operator
Country
US
Launch date
2025-11-22
Launch site
AFETR
Launch vehicle
Mass (kg)
RCS (m²)

Purposes: comms

External: N2YO · Heavens-Above · Gunter

§ Orbital elements

Epoch: 2026-05-24T22:29:01.324896Z

Period
94.27 min
Inclination
43.0025°
Eccentricity
0.0001265
Mean motion
15.27587254 rev/d
Perigee alt
482.2 km
Apogee alt
483.9 km
Semi-major
6,861.2 km
B*
3.2011e-4
RAAN
345.8595°
Arg perigee
278.0478°
Mean anomaly
82.0230°
Rev number
2,926

§ Raw data

STARLINK-360501 66602U 25270Q   26144.93682089  .00008559  00000+0  32011-3 0  99942 66602  43.0025 345.8595 0001265 278.0478  82.0230 15.27587254 29265

JSON: /api/v1/satellites/66602 · /tle

For live sub-satellite position, see the globe view (requires WebGL).

§ Visibility from observer

Set your observer location to see the next 7 days of passes ≥ 10°. The values pass through the URL so the page stays shareable.

No JS? Fill the form by hand. The geolocation button needs JavaScript.